GW7391 Weather Reports


time (UTC)temp
C
wind
direction
speed
KPH
gust
KPH
rain 1hr
cm
rain 24hr
cm
rain mn
cm
humidity
%
barometer
mb
20260505102003 13 245 4.8 11.3 0.00 0.00 0.00 82 970.8
20260505101503 13 251 3.2 11.3 0.00 0.00 0.00 82 970.7
20260505101003 13 247 3.2 6.4 0.00 0.00 0.00 82 970.7
20260505100503 13 239 3.2 8.0 0.00 0.00 0.00 82 970.2
20260505100218 13 240 3.2 8.0 0.00 0.00 0.00 82 969.9
20260505095717 13 247 3.2 8.0 0.00 0.00 0.00 82 970.2
20260505095003 13 250 1.6 6.4 0.00 0.00 0.00 82 970.2
20260505094503 13 254 1.6 6.4 0.00 0.00 0.00 82 970.1
20260505094003 13 249 1.6 8.0 0.00 0.00 0.00 81 970.0
20260505093717 13 253 3.2 14.5 0.00 0.00 0.00 81 970.1
20260505093003 13 255 3.2 14.5 0.00 0.00 0.00 81 970.1
20260505092503 13 253 3.2 8.0 0.00 0.00 0.00 81 970.1
20260505092003 13 245 3.2 8.0 0.00 0.00 0.00 81 969.9
20260505091503 13 244 4.8 11.3 0.00 0.00 0.00 80 969.9
20260505091003 13 245 6.4 17.7 0.00 0.00 0.00 80 969.8
20260505090503 13 243 4.8 19.3 0.00 0.00 0.00 80 970.1
20260505090004 13 243 4.8 19.3 0.00 0.00 0.00 80 970.1
20260505085503 13 240 4.8 16.1 0.00 0.00 0.00 80 969.9
20260505085218 13 240 6.4 19.3 0.00 0.00 0.00 80 969.9
20260505084503 13 240 6.4 20.9 0.00 0.00 0.00 80 969.7
20260505084003 13 236 6.4 20.9 0.00 0.00 0.00 80 969.5
20260505083717 13 234 6.4 20.9 0.00 0.00 0.00 80 969.6
20260505083003 13 241 4.8 17.7 0.00 0.00 0.00 80 969.7
20260505082503 13 235 6.4 17.7 0.00 0.00 0.00 80 969.5
20260505082003 13 230 6.4 17.7 0.00 0.00 0.00 81 969.6
20260505081503 13 232 4.8 14.5 0.00 0.00 0.00 82 969.1
20260505081217 13 232 3.2 14.5 0.00 0.00 0.00 82 969.1
20260505080503 13 227 3.2 12.9 0.00 0.00 0.00 84 969.2
20260505080003 13 226 1.6 9.7 0.00 0.00 0.00 85 969.2
20260505075503 13 245 1.6 6.4 0.00 0.00 0.00 85 969.1
20260505075003 13 242 3.2 8.0 0.00 0.00 0.00 86 969.1
20260505074503 13 239 3.2 8.0 0.00 0.00 0.00 86 969.1
20260505074217 13 250 3.2 9.7 0.00 0.00 0.00 86 969.0
20260505073718 13 253 3.2 9.7 0.00 0.00 0.00 86 969.1
20260505073003 13 258 1.6 6.4 0.00 0.00 0.00 87 968.9
20260505072503 13 189 1.6 8.0 0.00 0.00 0.00 87 968.6
20260505072003 13 172 1.6 8.0 0.00 0.00 0.00 86 968.5
20260505071718 13 194 1.6 8.0 0.00 0.00 0.00 86 968.3
20260505071003 13 241 1.6 3.2 0.00 0.00 0.00 86 968.7
20260505070503 13 246 0.0 3.2 0.00 0.00 0.00 86 968.8
20260505070003 13 311 0.0 1.6 0.00 0.00 0.00 85 968.3
20260505065503 13 273 0.0 1.6 0.00 0.00 0.00 85 968.6
20260505065003 13 259 1.6 4.8 0.00 0.00 0.00 84 968.6
20260505064718 13 257 1.6 4.8 0.00 0.00 0.00 84 968.6
20260505064003 13 245 1.6 6.4 0.00 0.00 0.00 83 968.4
20260505063503 13 219 3.2 9.7 0.00 0.00 0.00 83 968.7
20260505063003 13 204 3.2 9.7 0.00 0.00 0.00 83 968.6
20260505062503 13 221 1.6 8.0 0.00 0.00 0.00 83 968.6
20260505062003 13 216 1.6 8.0 0.00 0.00 0.00 83 968.7
20260505061503 14 229 3.2 12.9 0.00 0.00 0.00 82 969.0
20260505061003 14 242 4.8 12.9 0.00 0.00 0.00 80 969.2
20260505060503 14 244 8.0 29.0 0.00 0.00 0.00 80 969.3
20260505060004 14 245 9.7 29.0 0.00 0.00 0.00 80 969.6
20260505055503 14 245 8.0 17.7 0.00 0.00 0.00 81 969.5
20260505055003 14 243 6.4 17.7 0.00 0.00 0.00 82 969.5
20260505054503 13 242 4.8 14.5 0.00 0.00 0.00 83 969.5
20260505054003 13 245 6.4 14.5 0.00 0.00 0.00 84 969.3
20260505053503 13 244 6.4 16.1 0.00 0.00 0.00 84 969.0
20260505053003 13 241 6.4 16.1 0.00 0.00 0.00 84 968.9
20260505052503 13 233 6.4 17.7 0.00 0.00 0.00 84 968.6
20260505052003 13 231 6.4 17.7 0.00 0.00 0.00 83 968.7
20260505051503 13 222 6.4 17.7 0.00 0.00 0.00 84 968.6
20260505051003 13 216 4.8 17.7 0.00 0.00 0.00 84 968.4
20260505050503 13 219 4.8 12.9 0.00 0.00 0.00 85 968.8
20260505041503 15 240 17.7 45.1 0.00 0.00 0.00 79 969.8
20260505041003 16 240 22.5 48.3 0.00 0.00 0.00 72 969.5
20260505040503 17 240 22.5 49.9 0.00 0.00 0.00 63 969.5
20260505040218 18 238 22.5 49.9 0.00 0.00 0.00 59 969.4
20260505035503 18 238 16.1 43.5 0.00 0.00 0.00 57 969.0
20260505035218 18 239 12.9 27.4 0.00 0.00 0.00 58 968.9
20260505034717 18 235 9.7 22.5 0.00 0.00 0.00 60 968.8
20260505034003 18 233 8.0 20.9 0.00 0.00 0.00 61 968.7
20260505033503 18 230 8.0 20.9 0.00 0.00 0.00 61 968.7
20260505033003 18 231 8.0 20.9 0.00 0.00 0.00 61 968.4
20260505032503 18 233 6.4 20.9 0.00 0.00 0.00 62 968.5
20260505032003 18 237 8.0 16.1 0.00 0.00 0.00 62 968.5
20260505031503 18 234 6.4 16.1 0.00 0.00 0.00 62 968.8
20260505031003 18 227 6.4 14.5 0.00 0.00 0.00 62 968.5
20260505030503 18 233 6.4 14.5 0.00 0.00 0.00 62 968.5
20260505030004 18 238 8.0 17.7 0.00 0.00 0.00 62 968.4
20260505025503 18 237 8.0 17.7 0.00 0.00 0.00 62 968.7
20260505025004 17 238 8.0 17.7 0.00 0.00 0.00 63 968.6
20260505024503 17 250 6.4 17.7 0.00 0.00 0.00 64 968.6
20260505024003 17 257 4.8 14.5 0.00 0.00 0.00 64 968.4
20260505023503 17 249 4.8 14.5 0.00 0.00 0.00 65 968.6
20260505023003 17 244 3.2 12.9 0.00 0.00 0.00 66 968.6
20260505022503 17 243 3.2 12.9 0.00 0.00 0.00 66 968.7
20260505022003 17 226 3.2 9.7 0.00 0.00 0.00 66 968.6
20260505021718 17 220 3.2 9.7 0.00 0.00 0.00 66 968.5
20260505021003 17 225 4.8 14.5 0.00 0.00 0.00 65 968.6
20260505020503 17 237 4.8 12.9 0.00 0.00 0.00 65 968.6
20260505020003 17 236 4.8 12.9 0.00 0.00 0.00 64 968.4
20260505015503 17 238 4.8 12.9 0.00 0.00 0.00 64 968.4
20260505015217 17 240 6.4 16.1 0.00 0.00 0.00 64 968.7
20260505014503 17 240 6.4 25.7 0.00 0.00 0.00 64 968.3
20260505014003 17 239 4.8 14.5 0.00 0.00 0.00 64 968.4
20260505013503 17 239 6.4 17.7 0.00 0.00 0.00 64 968.2
20260505013003 18 238 6.4 24.1 0.00 0.00 0.00 63 968.4
20260505012503 18 229 8.0 24.1 0.00 0.00 0.00 62 968.2
20260505012003 18 225 8.0 17.7 0.00 0.00 0.00 63 968.3
20260505011505 17 230 6.4 17.7 0.00 0.00 0.00 65 968.5
20260505011003 17 229 4.8 12.9 0.00 0.00 0.00 67 968.3
20260505010503 17 232 4.8 9.7 0.00 0.00 0.00 67 968.2
20260505010003 17 229 4.8 20.9 0.00 0.00 0.00 66 968.3
20260505005718 17 229 4.8 20.9 0.00 0.00 0.00 66 968.2
20260505005217 17 235 4.8 12.9 0.00 0.00 0.00 66 968.1
20260505004503 18 237 4.8 16.1 0.00 0.00 0.00 64 968.0
20260505004003 18 234 6.4 16.1 0.00 0.00 0.00 64 968.1
20260505003503 18 230 6.4 12.9 0.00 0.00 0.00 64 967.9
20260505003217 18 228 6.4 12.9 0.00 0.00 0.00 64 967.9
20260505002503 18 233 6.4 16.1 0.00 0.00 0.00 64 967.7
20260505002004 18 238 6.4 17.7 0.00 0.00 0.00 64 967.6
20260505001503 18 234 6.4 17.7 0.00 0.00 0.00 64 967.5
20260505001003 18 233 8.0 19.3 0.00 0.00 0.00 64 967.8
20260505000503 18 230 8.0 19.3 0.00 0.00 0.00 65 967.7
20260505000219 17 231 9.7 19.3 0.00 0.00 0.00 65 968.0
20260504235503 17 227 9.7 24.1 0.00 0.00 0.00 66 967.8
20260504235003 17 226 9.7 20.9 0.00 0.00 0.00 66 967.7
20260504234503 18 228 9.7 25.7 0.00 0.00 0.00 64 967.9
20260504234003 18 228 11.3 29.0 0.00 0.00 0.00 62 967.9
20260504233503 18 231 11.3 29.0 0.00 0.00 0.00 61 968.2
20260504233003 18 236 11.3 24.1 0.00 0.00 0.00 58 968.1
20260504232503 19 231 11.3 24.1 0.00 0.00 0.00 57 967.8
20260504232003 20 225 12.9 27.4 0.00 0.00 0.00 53 967.6
20260504231503 20 229 14.5 27.4 0.00 0.00 0.00 49 967.6
20260504231003 22 234 11.3 25.7 0.00 0.00 0.00 43 967.7
20260504230503 23 234 8.0 19.3 0.00 0.00 0.00 40 967.1
20260504230003 23 239 8.0 22.5 0.00 0.00 0.00 40 967.3
20260504225503 23 243 11.3 25.7 0.00 0.00 0.00 39 967.4
20260504225003 23 239 11.3 25.7 0.00 0.00 0.00 39 967.3
20260504224503 23 238 9.7 20.9 0.00 0.00 0.00 39 967.4
20260504224003 23 244 9.7 24.1 0.00 0.00 0.00 39 967.3
20260504223503 24 242 9.7 24.1 0.00 0.00 0.00 37 967.3
20260504223003 24 240 9.7 20.9 0.00 0.00 0.00 37 967.2
20260504222717 24 240 9.7 20.9 0.00 0.00 0.00 37 967.1
20260504222003 24 244 11.3 30.6 0.00 0.00 0.00 37 967.4
20260504221503 24 240 12.9 30.6 0.00 0.00 0.00 37 967.5
20260504221003 24 236 9.7 29.0 0.00 0.00 0.00 37 967.5
20260504220503 24 242 9.7 27.4 0.00 0.00 0.00 38 967.7
20260504220218 23 238 11.3 27.4 0.00 0.00 0.00 39 967.8
20260504215503 23 240 11.3 30.6 0.00 0.00 0.00 39 967.7
20260504215217 23 244 11.3 30.6 0.00 0.00 0.00 39 967.9
20260504214503 23 234 9.7 20.9 0.00 0.00 0.00 40 968.2
20260504214003 23 225 8.0 30.6 0.00 0.00 0.00 41 968.1
20260504213503 23 219 9.7 30.6 0.00 0.00 0.00 40 968.0
20260504213003 23 226 9.7 27.4 0.00 0.00 0.00 40 968.0
20260504212503 23 240 14.5 33.8 0.00 0.00 0.00 38 968.3
20260504212003 23 237 12.9 33.8 0.00 0.00 0.00 37 968.1
20260504211716 23 237 11.3 30.6 0.00 0.00 0.00 36 968.1
20260504211003 23 241 9.7 22.5 0.00 0.00 0.00 37 968.3
20260504210503 23 241 9.7 24.1 0.00 0.00 0.00 36 968.2
20260504210217 23 241 11.3 32.2 0.00 0.00 0.00 35 968.5
20260504205716 23 237 12.9 33.8 0.00 0.00 0.00 34 968.5
20260504205003 23 234 14.5 41.8 0.00 0.00 0.00 34 968.6
20260504204503 23 236 16.1 41.8 0.00 0.00 0.00 33 968.7
20260504204003 23 236 14.5 33.8 0.00 0.00 0.00 32 968.7
20260504203503 23 239 12.9 33.8 0.00 0.00 0.00 32 968.7
20260504203003 23 235 12.9 37.0 0.00 0.00 0.00 32 968.6
20260504202503 23 234 11.3 37.0 0.00 0.00 0.00 31 968.7
20260504202217 24 237 11.3 37.0 0.00 0.00 0.00 30 968.7
20260504201503 23 231 14.5 37.0 0.00 0.00 0.00 30 968.6
20260504201003 23 233 16.1 37.0 0.00 0.00 0.00 29 968.8
20260504200503 23 240 12.9 30.6 0.00 0.00 0.00 29 968.6
20260504200003 23 247 12.9 32.2 0.00 0.00 0.00 29 969.2
20260504195718 23 241 14.5 32.2 0.00 0.00 0.00 29 968.8
20260504195003 23 234 14.5 32.2 0.00 0.00 0.00 29 969.0
20260504194503 23 237 14.5 29.0 0.00 0.00 0.00 29 968.9
20260504194003 24 231 12.9 32.2 0.00 0.00 0.00 28 969.1
20260504193503 23 236 12.9 32.2 0.00 0.00 0.00 29 969.1
20260504193003 23 242 14.5 40.2 0.00 0.00 0.00 28 968.9
20260504192503 23 244 16.1 48.3 0.00 0.00 0.00 28 969.1
20260504192217 23 241 14.5 48.3 0.00 0.00 0.00 29 969.0
20260504191503 23 233 12.9 29.0 0.00 0.00 0.00 29 969.2
20260504191003 23 242 14.5 38.6 0.00 0.00 0.00 28 969.3
20260504190718 23 241 16.1 38.6 0.00 0.00 0.00 28 969.3
20260504190003 23 236 16.1 38.6 0.00 0.00 0.00 28 969.4
20260504185503 23 236 17.7 38.6 0.00 0.00 0.00 28 969.3
20260504185003 23 237 19.3 38.6 0.00 0.00 0.00 27 969.1
20260504184503 23 235 17.7 37.0 0.00 0.00 0.00 27 969.7
20260504184003 23 228 12.9 37.0 0.00 0.00 0.00 27 969.5
20260504183503 23 225 12.9 33.8 0.00 0.00 0.00 28 969.6